Погода в Новгороде

Погода в Новгороде : погода сейчас, прогноз погоды и архив. Всё, что Вы хотите узнать о погоде в Новгороде!

Хотите узнать прогноз погоды в Новгороде? Тогда Вам сюда: Погода в Новгороде

Поиск расширенной информации на нашем сайте:

Другие новости

Новости СМИ2

Главная страница сайта

Новости сайта

03.07.2017

Напоминаем, что на нашем специализированном сайте Метеоцентр.Азия вы можете получить высокодетализированные автоматические прогнозы погоды по пунктам России, СНГ и мира в авиационном формате (включающие направление и скорость ветра, видимость, явления погоды, количество и форму облачности, нижнюю и верхнюю границу облачности).


Погода в Новгороде - сегодня

Время (UTC), дата Ветер
(°,м/с) 
Видим.   Явления Облачность Т
(°С)
Тd
(°С)
f(%) Тe
(°С)
Pmin
(гПа)
dP
(гПа)
Po
(мм)
O2
(г/м3)
Тmin Tmax R s Состояние
почвы
09 15.06.18 170 (Ю) 20000 м    3/0 средняя, верхняя 
[Ac trans|Ci fib]
+19.6 +8 47 +20  1018.5  0.5  762  285           
12 15.06.18 160 (Ю) 20000 м    3/3 600 м верхняя 
[Sc diur, vesp|Ci fib]
+21.4 +7.3 40 +21  1018.3  -0.2  761  283           
15 15.06.18 150 (ЮВ) 20000 м    3/3 600 м верхняя 
[Sc diur, vesp|Ci fib]
+22.2 +5.6 34 +22  1017.5  -0.8  761  283           
21 15.06.18 тихо ()   10 км    1/0 верхняя 
[Ci fib]
+11.4 +9.1 86 +11  1018.2  -0.2  761  293           
09 16.06.18 150 (ЮВ) 20000 м    3/1 600 м верхняя 
[Cu hum|Ci fib]
+21.6 +9.5 46 +22  1020.2  0.4  763  283           
12 16.06.18 180 (Ю) 20000 м    3/1 1000 м верхняя 
[Sc diur, vesp|Cc]
+23.5 +6.2 33 +24  1019.5  -0.6  762  282           
15 16.06.18 240 (ЮЗ) 20000 м    9/6 600 м средняя, верхняя 
[Sc|Ac cast|Ci]
+22.4 +7.6 39 +22  1018.7  -0.8  762  282           
21 16.06.18 180 (Ю) 10 км    9/5 600 м кучево-дожд., средняя, верхняя 
[Cb cap|Ac lent|Ci ing]
+15 +13 88 +21  1019.4  0.5  762  289           
09 17.06.18 160 (Ю) 10 км    9/6 600 м средняя 
[Sc|Ac trans]
+19 +11.5 62 +22  1019.1  0.3  762  285           
12 17.06.18 120 (ЮВ) 10 км    9/6 600 м средняя 
[Sc|Ac trans]
+20.8 +10.9 53 +23  1018.4  -0.7  762  283           
15 17.06.18 130 (ЮВ) 10 км    9/8 600 м кучево-дожд., средняя 
[Cb cap|Ac trans]
+21.6 +11.9 54 +25  1017.4  -1  761  282      0.0     
21 17.06.18 080 (В) 10 км    8/8 600 м кучево-дожд., средняя 
[Cb cap|Ac trans]
+16.7 +14.1 85 +25  1016.8  -0.4  760  286           
03 18.06.18 130 (ЮВ) 10 км  в посл. час ливневой дождь  9/8 300 м кучево-дожд., средняя 
[Cb cap|Ac trans]
+17.1 +13.7 80 +24  1015.2  -1.2  759  285  +15.5       
09 18.06.18 160 (Ю) 20000 м    6/5 600 м кучево-дожд., верхняя 
[Cb cap|Ci fib]
+21.9 +15.5 67 +31  1014.6  -0.1  759  280           
12 18.06.18 210 (ЮЗ) 20000 м    8/8 600 м 
[Cu med, cong]
+23.5 +15.9 62 +33  1014.1  -0.5  758  278           
15 18.06.18 170 (Ю) 20000 м    4/3 600 м верхняя 
[Cu Sc|Ci fib]
+23.1 +16.2 65 +34  1013  -1.1  758  278      0.5     
03 19.06.18 290 (З) 10 км  {ливн. осадки}  8/8 1000 м кучево-дожд. 
[Cb cap]
+14.8 +12.4 86 +19  1012.7  0.1  757  287  +14.6       
09 19.06.18 240 (ЮЗ) 4{10}  20000 м    8/8 300 м верхняя 
[Sc diur, vesp|Ci fib]
+20.4 +9.6 50 +21  1011  -1.8  756  282           
21 19.06.18 250 (З) 3{10}  10 км  {ливн. осадки}  ясно 
+11.7 +10.1 90 +12  1006.7  0.8  753  289           
00 20.06.18 250 (З) 10 км  {ливн. осадки}  ясно 
+11.3 +9.4 88 +11  1007.2  0.8  753  290           
21 20.06.18 270 (З) 10 км    9/5 600 м кучево-дожд., средняя 
[Cb cap|Ac lent]
+15.2 +5.1 51 +15  1009.5  0.2  755  287           
00 21.06.18 270 (З) 10 км    9/8 600 м кучево-дожд., средняя 
[Cb cap|Ac trans]
+13.6 +3.6 51 +14  1009.5  755  289           
03 21.06.18 230 (ЮЗ) 10 км  в посл. час ливневой дождь  9/6 300 м кучево-дожд., средняя 
[Cb cap|Ac lent]
+13.1 +7.3 68 +14  1009.4  0.1  755  289  +12.8    0.0     
09 21.06.18 220 (ЮЗ) 10 км    10/10 600 м кучево-дожд. 
[Cb cap]
+15.5 +11.7 78 +19  1009.3  -0.5  755  286           
21 21.06.18 160 (Ю) 10 км    3/0 средняя 
[Ac trans]
+18.4 +15.2 82 +28  1004  -1.7  751  280           
Время (UTC), дата Ветер
(°,м/с) 
Видим.   Явления Облачность Т
(°С)
Тd
(°С)
f(%) Тe
(°С)
Pmin
(гПа)
dP
(гПа)
Po
(мм)
O2
(г/м3)
Тmin Tmax R s Состояние
почвы

Для получения пояснительной информации подведите курсор к названию столбца.

ПОГОДА в Новгороде - архив

Всё, что Вы хотите узнать о погоде в Новгороде - удобно и подробно!

Выберите нужную дату (начиная с 1 января 2015* года) и нажмите кнопку "Найти".
Будут отображены архивные сводки погоды по пункту Новгород, начиная с указанной даты.


Отображать данные в формате CSV (для использования в таблицах Excel)


Внимание! Наш архив погоды предназначен исключительно для личного некоммерческого использования в познавательных целях. Если Вам необходимы официальные справки о состоянии погоды (для производственных, юридических, коммерческих и т.п. целей), обращайтесь в органы Росгидромета.

*Примечание: данная дата относится к архиву по метеостанциям СССР (Россия, СНГ, Балтия).
Архив по метеостанциям Зарубежной Европы и Азии (кроме Китая) хранится 10 дней, по другим регионам земного шара (Китай, Африка, Америка, Австралия, Океания) - 1 день.

Новгород - район местоположения метеостанции


Название, широта, долгота, высота метеостанции:
Новгород 58.6°ш. 31.2°д. 24 м над ур. моря [Российская Федерация]

Дополнительная информация

В oтличие oт бoльшинства пoгoдных сайтoв мы публикуем пoдрoбную метеoинфoрмацию в детальнoм прoфессиoнальнoм фoрмате.

Характеристики температуры и влажнoсти вoздуха измеряются на высoте 2 м в тени вдали oт зданий и деревьев.
Скoрoсть ветра измеряется на высoте 10 м (на урoвне рoста челoвека скoрoсть ветра ниже в 1.5-2 раза). Если метеoстанция нахoдится в гoрoде или в лесу, тo скoрoсть ветра занижена на 2-4 м/с пo сравнению с oткрытым местoм. Скoрoсть ветра над акватoриями крупных рек и oзёр, а также на вершинах хoлмoв на 2-5 м/с выше, чем в oбычных услoвиях.
Атмoсфернoе давление в разных тoчках местнoсти мoжет значительнo oтличаться oт давления на метеoстанции, в зависимoсти oт услoвий рельефа (при пoдъёме на 10 м давление пoнижается примернo на 1 мм рт.ст.).